VA3XLC Weather Reports


Display with metric or nautical units.
time (UTC)temp
F
wind
direction
speed
MPH
gust
MPH
rain 1hr
in
rain 24hr
in
rain mn
in
humidity
%
barometer
mb
20260509223409 58 249 4.0 6.0 0.00 0.00 0.00 72 970.5
20260509222909 58 226 2.0 4.0 0.00 0.00 0.00 74 970.5
20260509222409 58 267 5.0 6.0 0.00 0.00 0.00 73 970.4
20260509221908 57 243 4.0 5.0 0.00 0.00 0.00 73 970.4
20260509220325 55 266 5.0 7.0 0.00 0.00 0.00 75 970.4
20260509215825 55 256 3.0 6.0 0.00 0.00 0.00 77 970.4
20260509215325 54 257 4.0 6.0 0.00 0.00 0.00 78 970.4
20260509214304 53 199 3.0 6.0 0.00 0.00 0.00 81 970.6
20260509213803 53 266 3.0 8.0 0.00 0.00 0.00 81 970.7
20260509213303 53 230 4.0 6.0 0.00 0.00 0.00 81 970.8
20260509212803 53 268 5.0 11.0 0.00 0.00 0.00 81 970.8
20260509211742 53 257 2.0 4.0 0.00 0.00 0.00 81 970.8
20260509211242 52 240 3.0 6.0 0.00 0.00 0.00 82 970.8
20260509210741 52 259 6.0 8.0 0.00 0.00 0.00 81 970.7
20260509210241 52 256 5.0 7.0 0.00 0.00 0.00 82 970.8
20260509205740 51 258 4.0 7.0 0.00 0.00 0.00 84 970.8
20260509204719 51 259 4.0 6.0 0.00 0.00 0.00 83 970.8
20260509204219 51 263 7.0 10.0 0.00 0.00 0.00 83 971.1
20260509203719 51 271 8.0 13.0 0.00 0.00 0.00 84 971.0
20260509203219 52 271 6.0 10.0 0.00 0.00 0.00 82 971.5
20260509202718 55 313 6.0 9.0 0.00 0.00 0.00 77 971.7
20260509202218 58 341 11.0 16.0 0.00 0.00 0.00 70 971.7
20260509201156 59 258 10.0 15.0 0.00 0.00 0.00 71 969.8
20260509200656 59 265 8.0 17.0 0.00 0.00 0.00 71 969.9
20260509200156 59 250 8.0 11.0 0.00 0.00 0.00 71 969.9
20260509195656 59 252 10.0 17.0 0.00 0.00 0.00 71 970.0
20260509195156 59 265 13.0 24.0 0.00 0.00 0.00 71 970.0
20260509194655 59 242 10.0 25.0 0.00 0.00 0.00 71 969.9
20260509193634 59 255 7.0 11.0 0.00 0.00 0.00 71 970.0
20260509193134 59 247 5.0 8.0 0.00 0.00 0.00 71 970.0
20260509192634 59 253 11.0 17.0 0.00 0.00 0.00 71 969.8
20260509192134 59 245 7.0 10.0 0.00 0.00 0.00 71 970.0
20260509191633 59 228 5.0 11.0 0.00 0.00 0.00 72 970.2
20260509190612 58 243 6.0 11.0 0.00 0.00 0.00 72 970.3
20260509190112 59 231 3.0 6.0 0.00 0.00 0.00 72 970.3
20260509185612 59 223 6.0 11.0 0.00 0.00 0.00 72 970.2
20260509184551 58 264 9.0 12.0 0.00 0.00 0.00 72 970.3
20260509183530 58 229 4.0 7.0 0.00 0.00 0.00 73 970.5
20260509183029 58 225 5.0 9.0 0.00 0.00 0.00 73 970.6
20260509182529 58 239 4.0 9.0 0.00 0.00 0.00 75 970.7
20260509182029 57 192 5.0 7.0 0.00 0.00 0.00 75 970.9
20260509181529 58 258 6.0 12.0 0.00 0.00 0.00 75 971.1
20260509181029 58 211 3.0 5.0 0.00 0.00 0.00 74 971.3
20260509180529 58 255 3.0 5.0 0.00 0.00 0.00 73 971.3
20260509180028 59 245 5.0 10.0 0.00 0.00 0.00 73 971.1
20260509175528 59 252 5.0 8.0 0.00 0.00 0.00 73 970.9
20260509175027 60 262 5.0 8.0 0.00 0.00 0.00 73 970.9
20260509174526 59 196 5.0 9.0 0.00 0.00 0.00 72 970.9
20260509174026 59 193 4.0 7.0 0.00 0.00 0.00 73 970.8
20260509173526 59 186 7.0 12.0 0.00 0.00 0.00 74 970.7
20260509173025 60 190 5.0 10.0 0.00 0.00 0.00 72 970.8
20260509172525 60 249 6.0 12.0 0.00 0.00 0.00 73 970.9
20260509172025 60 241 6.0 10.0 0.00 0.00 0.00 73 970.9
20260509171525 60 206 7.0 11.0 0.00 0.00 0.00 72 971.2
20260509171025 60 247 5.0 8.0 0.00 0.00 0.00 73 971.3
20260509170525 60 253 5.0 9.0 0.00 0.00 0.00 72 971.2
20260509170024 60 210 4.0 10.0 0.00 0.00 0.00 71 971.2
20260509165524 60 252 4.0 7.0 0.00 0.00 0.00 72 971.3
20260509164503 60 201 4.0 6.0 0.00 0.00 0.00 72 971.6
20260509164003 60 197 3.0 6.0 0.00 0.00 0.00 72 971.6
20260509162942 60 265 3.0 8.0 0.00 0.00 0.00 70 971.8
20260509162441 60 207 4.0 7.0 0.00 0.00 0.00 71 971.9
20260509161940 59 198 6.0 11.0 0.00 0.00 0.00 71 971.9
20260509160919 59 169 6.0 8.0 0.00 0.00 0.00 72 972.3
20260509155858 59 238 5.0 8.0 0.00 0.00 0.00 71 972.8
20260509155357 58 271 4.0 6.0 0.00 0.00 0.00 71 972.7
20260509154857 58 230 3.0 5.0 0.00 0.00 0.00 72 972.7
20260509154357 59 215 3.0 4.0 0.00 0.00 0.00 72 972.8
20260509153856 59 197 4.0 7.0 0.00 0.00 0.00 71 972.9
20260509153356 59 221 4.0 7.0 0.00 0.00 0.00 71 972.8
20260509152855 59 232 3.0 5.0 0.00 0.00 0.00 72 972.7
20260509152355 59 243 3.0 6.0 0.00 0.00 0.00 71 972.7
20260509151855 59 247 3.0 4.0 0.00 0.00 0.00 73 972.7
20260509151355 58 182 6.0 9.0 0.00 0.00 0.00 73 972.6
20260509150854 58 199 3.0 5.0 0.00 0.00 0.00 74 972.6
20260509150354 58 183 5.0 8.0 0.00 0.00 0.00 74 972.8
20260509145853 57 254 3.0 5.0 0.00 0.00 0.00 75 972.9
20260509145353 57 239 3.0 5.0 0.00 0.00 0.00 75 972.8
20260509144853 57 246 5.0 11.0 0.00 0.00 0.00 74 972.8
20260509144353 57 239 3.0 5.0 0.00 0.00 0.00 74 972.7
20260509143853 57 222 3.0 6.0 0.00 0.00 0.00 74 972.7
20260509143353 56 193 3.0 5.0 0.00 0.00 0.00 75 972.7
20260509142852 56 182 5.0 9.0 0.00 0.00 0.00 75 972.8
20260509142351 55 225 3.0 6.0 0.00 0.00 0.00 76 972.9
20260509141851 55 256 4.0 9.0 0.00 0.00 0.00 77 972.9
20260509141351 54 189 3.0 7.0 0.00 0.00 0.00 79 973.0
20260509140329 53 266 8.0 12.0 0.00 0.00 0.00 79 973.0
20260509135829 53 241 6.0 8.0 0.00 0.00 0.00 80 973.1
20260509134806 52 269 3.0 6.0 0.00 0.00 0.00 83 973.2
20260509134306 52 268 6.0 9.0 0.00 0.00 0.00 83 973.2
20260509133806 52 263 5.0 7.0 0.00 0.00 0.00 84 973.2
20260509133306 51 245 5.0 10.0 0.00 0.00 0.00 85 973.3
20260509132806 51 253 6.0 11.0 0.00 0.00 0.00 86 973.3
20260509132307 51 258 4.0 6.0 0.00 0.00 0.00 86 973.3
20260509131244 50 225 4.0 7.0 0.00 0.00 0.00 88 973.3
20260509130744 50 260 6.0 9.0 0.00 0.00 0.00 89 973.4
20260509130243 50 271 7.0 8.0 0.00 0.00 0.00 90 973.4
20260509125743 49 262 6.0 10.0 0.00 0.00 0.00 91 973.4
20260509125243 49 234 4.0 7.0 0.00 0.00 0.00 92 973.3
20260509124743 49 256 7.0 9.0 0.00 0.00 0.00 92 973.3
20260509124243 49 242 4.0 8.0 0.00 0.00 0.00 92 973.4
20260509123221 49 278 4.0 8.0 0.00 0.00 0.00 92 973.5
20260509122720 49 285 4.0 7.0 0.00 0.00 0.00 92 973.5
20260509122220 49 227 2.0 3.0 0.00 0.00 0.00 93 973.5
20260509121158 49 254 2.0 3.0 0.00 0.00 0.00 93 973.6
20260509120658 49 261 3.0 5.0 0.00 0.00 0.00 93 973.6
20260509115114 49 259 4.0 9.0 0.00 0.00 0.00 93 973.6
20260509114614 49 255 5.0 8.0 0.00 0.00 0.00 93 973.8
20260509114114 49 264 3.0 5.0 0.00 0.00 0.00 93 973.9
20260509113614 49 258 5.0 8.0 0.00 0.00 0.00 92 973.8
20260509113113 49 257 6.0 8.0 0.00 0.00 0.00 92 973.7
20260509112613 49 259 5.0 6.0 0.00 0.00 0.00 92 973.6
20260509112113 49 261 4.0 6.0 0.00 0.00 0.00 92 973.5
20260509111051 49 240 4.0 8.0 0.00 0.00 0.00 91 973.4
20260509110551 49 183 4.0 5.0 0.00 0.00 0.00 91 973.3
20260509110051 50 222 2.0 3.0 0.00 0.00 0.00 91 973.3
20260509105551 50 185 3.0 4.0 0.00 0.00 0.00 91 973.3
20260509105051 50 235 2.0 4.0 0.00 0.00 0.00 90 973.3
20260509104550 50 217 3.0 5.0 0.00 0.00 0.00 90 973.3
20260509103528 49 178 3.0 4.0 0.00 0.00 0.00 90 973.3
20260509102507 49 203 2.0 3.0 0.00 0.00 0.00 90 973.5
20260509102007 49 198 2.0 3.0 0.00 0.00 0.00 90 973.5
20260509101507 49 178 1.0 3.0 0.00 0.00 0.00 89 973.5
20260509101007 50 218 2.0 3.0 0.00 0.00 0.00 89 973.6
20260509100507 50 216 3.0 4.0 0.00 0.00 0.00 89 973.6
20260509095445 50 227 2.0 5.0 0.00 0.00 0.00 89 973.5
20260509094945 50 180 1.0 2.0 0.00 0.00 0.00 88 973.6
20260509094445 50 173 4.0 5.0 0.00 0.00 0.00 88 973.6
20260509093945 50 202 2.0 3.0 0.00 0.00 0.00 88 973.7
20260509093445 50 196 2.0 6.0 0.00 0.00 0.00 88 973.8
20260509092945 50 234 2.0 3.0 0.00 0.00 0.00 88 973.8
20260509092444 50 241 3.0 5.0 0.00 0.00 0.00 88 973.8
20260509091944 50 208 2.0 2.0 0.00 0.00 0.00 88 973.9
20260509091444 50 237 2.0 4.0 0.00 0.00 0.00 88 973.9
20260509090943 50 189 2.0 4.0 0.00 0.00 0.00 88 973.8
20260509090443 49 173 3.0 4.0 0.00 0.00 0.00 88 973.8
20260509085943 49 270 2.0 4.0 0.00 0.00 0.00 88 973.8
20260509084922 49 176 3.0 5.0 0.00 0.00 0.00 88 973.8
20260509083901 49 188 4.0 8.0 0.00 0.00 0.00 87 973.8
20260509083401 49 185 4.0 6.0 0.00 0.00 0.00 87 973.8
20260509082901 50 175 6.0 8.0 0.00 0.00 0.00 87 973.8
20260509082400 50 176 4.0 7.0 0.00 0.00 0.00 86 973.8
20260509081900 50 175 4.0 6.0 0.00 0.00 0.00 86 973.7
20260509081400 50 185 2.0 3.0 0.00 0.00 0.00 86 973.8
20260509080900 50 176 5.0 8.0 0.00 0.00 0.00 85 973.7
20260509080400 50 199 3.0 4.0 0.00 0.00 0.00 85 973.8
20260509075859 50 176 3.0 5.0 0.00 0.00 0.00 85 973.9
20260509074837 50 181 5.0 6.0 0.00 0.00 0.00 84 974.0
20260509073255 49 193 3.0 6.0 0.00 0.00 0.00 83 974.1
20260509072755 49 189 4.0 6.0 0.00 0.00 0.00 82 974.2
20260509072255 49 198 3.0 6.0 0.00 0.00 0.00 82 974.2
20260509071755 49 187 3.0 4.0 0.00 0.00 0.00 81 974.2
20260509071254 49 196 3.0 5.0 0.00 0.00 0.00 80 974.2
20260509070754 49 180 6.0 8.0 0.00 0.00 0.00 80 974.2
20260509070254 49 181 5.0 8.0 0.00 0.00 0.00 80 974.2
20260509065754 49 186 3.0 5.0 0.00 0.00 0.00 79 974.4
20260509065253 49 180 5.0 6.0 0.00 0.00 0.00 79 974.4
20260509064753 49 182 5.0 7.0 0.00 0.00 0.00 78 974.5
20260509063731 49 193 4.0 5.0 0.00 0.00 0.00 78 974.5
20260509063231 49 187 3.0 4.0 0.00 0.00 0.00 78 974.5
20260509062731 49 181 4.0 6.0 0.00 0.00 0.00 78 974.5
20260509062231 49 178 5.0 7.0 0.00 0.00 0.00 78 974.6
20260509061730 49 188 2.0 4.0 0.00 0.00 0.00 78 974.6
20260509061230 48 188 3.0 5.0 0.00 0.00 0.00 78 974.6
20260509060730 48 179 2.0 4.0 0.00 0.00 0.00 78 974.8
20260509060230 48 179 3.0 4.0 0.00 0.00 0.00 77 974.9
20260509055209 48 185 3.0 3.0 0.00 0.00 0.00 77 975.1
20260509054709 48 191 1.0 2.0 0.00 0.00 0.00 77 975.1
20260509054208 48 187 2.0 3.0 0.00 0.00 0.00 77 975.2
20260509053708 48 151 2.0 2.0 0.00 0.00 0.00 77 975.3
20260509052647 47 0 0.0 0.0 0.00 0.00 0.00 77 975.4
20260509052147 47 0 0.0 0.0 0.00 0.00 0.00 77 975.4
20260509051647 47 194 1.0 3.0 0.00 0.00 0.00 77 975.4
20260509051147 47 213 1.0 3.0 0.00 0.00 0.00 76 975.4
20260509050646 47 186 4.0 5.0 0.00 0.00 0.00 76 975.4
20260509050146 47 199 3.0 4.0 0.00 0.00 0.00 76 975.5
20260509045646 47 192 3.0 5.0 0.00 0.00 0.00 75 975.5
20260509045146 47 187 2.0 3.0 0.00 0.00 0.00 75 975.6
20260509044646 47 183 2.0 3.0 0.00 0.00 0.00 75 975.7
20260509044146 47 162 2.0 3.0 0.00 0.00 0.00 75 975.8
20260509043645 47 187 2.0 3.0 0.00 0.00 0.00 75 975.8
20260509043144 47 182 3.0 4.0 0.00 0.00 0.00 75 975.7
20260509041602 47 203 2.0 3.0 0.00 0.00 0.00 74 975.9
20260509041101 47 192 4.0 6.0 0.00 0.00 0.00 74 975.8
20260509040601 47 185 5.0 7.0 0.00 0.00 0.00 74 975.9
20260509040101 47 192 2.0 3.0 0.00 0.00 0.00 74 976.1
20260509035601 47 194 3.0 3.0 0.00 0.00 0.00 73 976.1
20260509035100 47 173 3.0 5.0 0.00 0.00 0.00 73 976.1
20260509034600 47 191 4.0 5.0 0.00 0.00 0.00 73 976.1
20260509034100 47 179 3.0 3.0 0.00 0.00 0.00 73 976.1
20260509033600 47 186 3.0 4.0 0.00 0.00 0.00 72 976.1
20260509033059 48 183 5.0 8.0 0.00 0.00 0.00 72 976.1
20260509032559 48 184 4.0 4.0 0.00 0.00 0.00 71 976.2
20260509032059 48 185 4.0 6.0 0.00 0.00 0.00 70 976.2
20260509031558 48 210 3.0 3.0 0.00 0.00 0.00 70 976.2
20260509031058 48 213 2.0 4.0 0.00 0.00 0.00 69 976.3
20260509030037 49 203 2.0 4.0 0.00 0.00 0.00 68 976.4
20260509025537 49 219 2.0 4.0 0.00 0.00 0.00 67 976.4
20260509025036 49 198 2.0 3.0 0.00 0.00 0.00 67 976.5
20260509024536 49 208 2.0 3.0 0.00 0.00 0.00 66 976.5
20260509024036 49 193 1.0 2.0 0.00 0.00 0.00 66 976.5
20260509023536 49 202 3.0 5.0 0.00 0.00 0.00 65 976.6
20260509023035 49 164 1.0 2.0 0.00 0.00 0.00 65 976.6
20260509022534 49 222 1.0 2.0 0.00 0.00 0.00 65 976.6
20260509022034 49 200 2.0 3.0 0.00 0.00 0.00 64 976.6
20260509021534 49 197 3.0 4.0 0.00 0.00 0.00 64 976.5
20260509021033 49 190 3.0 4.0 0.00 0.00 0.00 63 976.4
20260509020012 50 219 2.0 4.0 0.00 0.00 0.00 62 976.4
20260509015512 50 186 3.0 5.0 0.00 0.00 0.00 62 976.3
20260509015012 50 186 1.0 2.0 0.00 0.00 0.00 61 976.2
20260509014512 50 186 2.0 2.0 0.00 0.00 0.00 61 976.2
20260509014012 50 191 3.0 4.0 0.00 0.00 0.00 60 976.1
20260509013511 50 168 3.0 5.0 0.00 0.00 0.00 60 976.1
20260509013011 50 188 4.0 5.0 0.00 0.00 0.00 60 976.1
20260509012511 50 182 3.0 5.0 0.00 0.00 0.00 59 976.0
20260509012011 50 185 2.0 3.0 0.00 0.00 0.00 59 976.0
20260509011511 50 189 3.0 3.0 0.00 0.00 0.00 59 976.0
20260509011011 50 197 2.0 3.0 0.00 0.00 0.00 58 975.9
20260509005428 51 192 1.0 2.0 0.00 0.00 0.00 56 975.8
20260509004927 51 191 2.0 4.0 0.00 0.00 0.00 55 975.8
20260509004427 51 195 2.0 3.0 0.00 0.00 0.00 55 975.8
20260509003927 52 188 4.0 7.0 0.00 0.00 0.00 54 975.7
20260509003427 52 186 3.0 6.0 0.00 0.00 0.00 53 975.7
20260509002927 52 188 3.0 4.0 0.00 0.00 0.00 53 975.8
20260509002427 52 217 1.0 3.0 0.00 0.00 0.00 53 975.8
20260509001926 53 192 2.0 5.0 0.00 0.00 0.00 52 975.8
20260509001426 53 207 3.0 5.0 0.00 0.00 0.00 51 975.8
20260509000926 53 197 3.0 5.0 0.00 0.00 0.00 51 975.8
20260509000426 54 193 5.0 7.0 0.00 0.00 0.00 50 975.8
20260508235926 54 212 4.0 6.0 0.00 0.00 0.00 49 975.8
20260508235425 54 236 3.0 5.0 0.00 0.00 0.00 49 975.8
20260508234402 55 184 5.0 8.0 0.00 0.00 0.00 47 975.8
20260508233902 55 197 3.0 4.0 0.00 0.00 0.00 48 975.8
20260508232320 56 193 4.0 6.0 0.00 0.00 0.00 46 975.7
20260508231258 56 222 3.0 6.0 0.00 0.00 0.00 44 975.7
20260508230758 56 189 2.0 4.0 0.00 0.00 0.00 43 975.7
20260508230258 56 212 3.0 6.0 0.00 0.00 0.00 44 975.6
20260508225758 56 323 2.0 4.0 0.00 0.00 0.00 45 975.6
20260508225258 57 174 5.0 9.0 0.00 0.00 0.00 43 975.5
20260508224757 57 202 4.0 7.0 0.00 0.00 0.00 43 975.6
20260508224256 57 264 4.0 8.0 0.00 0.00 0.00 43 975.6
20260508223757 57 215 3.0 5.0 0.00 0.00 0.00 42 975.6